sat.trackr.live / text

‹ back to catalog

STARLINK-4114

NORAD 53162 · 2022-083AG

PAYLOAD ACTIVE UNKNOWN

§ Identity

Operator
Country
US
Launch date
2022-07-17
Launch site
AFETR
Launch vehicle
Mass (kg)
RCS (m²)

Purposes: comms

External: N2YO · Heavens-Above · Gunter

§ Orbital elements

Epoch: 2026-05-25T02:06:55.833408Z

Period
95.44 min
Inclination
53.2129°
Eccentricity
0.0000946
Mean motion
15.08840828 rev/d
Perigee alt
539.1 km
Apogee alt
540.4 km
Semi-major
6,917.9 km
B*
9.6458e-5
RAAN
181.1653°
Arg perigee
103.9236°
Mean anomaly
256.1861°
Rev number
21,289

§ Raw data

STARLINK-41141 53162U 22083AG  26145.08814622  .00001248  00000+0  96458-4 0  99912 53162  53.2129 181.1653 0000946 103.9236 256.1861 15.08840828212894

JSON: /api/v1/satellites/53162 · /tle

For live sub-satellite position, see the globe view (requires WebGL).

§ Visibility from observer

Set your observer location to see the next 7 days of passes ≥ 10°. The values pass through the URL so the page stays shareable.

No JS? Fill the form by hand. The geolocation button needs JavaScript.